Clermont County, Batavia, OH

8:07 AM EST on December 08, 2019 (GMT -0500)
Clermont County, Batavia

Weather History for KI69 - October, 2019

Change the Weather History Date:

Monday, October 28, 2019

  Actual Average (KLUK) Record (KLUK)
Temperature  
Mean Temperature 54 °F -  
Max Temperature 68 °F 62 °F 80 °F (1971)
Min Temperature 39 °F 41 °F 20 °F (1976)
Degree Days  
Heating Degree Days 12    
Growing Degree Days 4 (Base 50)    
Moisture  
Dew Point 47 °F    
Average Humidity 82    
Maximum Humidity 100    
Minimum Humidity 49    
Precipitation  
Precipitation 0.03 in - - ()
Sea Level Pressure  
Sea Level Pressure 30.09 in    
Wind  
Wind Speed 1 mph (SSE)    
Max Wind Speed 8 mph    
Max Gust Speed -    
Visibility 8 miles    
Events Fog    
Averages and records for this station are not official NWS values.
T = Trace of Precipitation, MM = Missing Value Source: NWS Daily Summary

Daily Weather History Graph

Daily Weather History Graph

Search for Another Location

Airport or City:

Astronomy

Oct. 28, 2019 Rise Set
Actual Time 7:59 AM EDT 6:40 PM EDT
Civil Twilight 7:32 AM EDT 7:08 PM EDT
Nautical Twilight 7:00 AM EDT 7:39 PM EDT
Astronomical Twilight 6:29 AM EDT 8:10 PM EDT
Moon 8:20 AM EDT (10/28) 7:25 PM EDT (10/28)
Length of Visible Light 11h 36m
Length of Day
10h 41m
New Moon, 0% of the Moon is Illuminated
Oct 28
New Moon
Nov 4
First Quarter
Nov 12
Full
Nov 19
Last Quarter
Nov 26
New

Hourly Weather History & Observations

Time (EDT) Temp. Dew Point Humidity Pressure Visibility Wind Dir Wind Speed Gust Speed Precip Events Conditions
12:15 AM 46.0 °F 45.3 °F 97% 30.09 in 10.0 mi Calm Calm - N/A   Clear
12:35 AM 45.7 °F 45.1 °F 98% 30.08 in 7.0 mi Calm Calm - N/A   Clear
12:56 AM 44.2 °F 43.2 °F 96% 30.08 in 10.0 mi Calm Calm - N/A   Clear
1:19 AM 45.5 °F 44.6 °F 97% 30.09 in 10.0 mi Calm Calm - N/A   Clear
1:37 AM 44.6 °F 43.7 °F 97% 30.09 in 10.0 mi Calm Calm - 0.01 in   Clear
1:55 AM 43.3 °F 43.0 °F 99% 30.09 in 5.0 mi Calm Calm - 0.01 in   Clear
2:15 AM 43.7 °F 43.2 °F 98% 30.09 in 7.0 mi Calm Calm - N/A   Clear
2:35 AM 43.0 °F 42.4 °F 98% 30.09 in 7.0 mi Calm Calm - N/A   Clear
2:59 AM 42.1 °F 41.9 °F 99% 30.09 in 0.8 mi Calm Calm - N/A   Mist
3:17 AM 42.3 °F 42.1 °F 99% 30.10 in 2.5 mi Calm Calm - N/A   Clear
3:35 AM 42.6 °F 42.4 °F 99% 30.11 in 10.0 mi Calm Calm - N/A   Clear
3:55 AM 43.0 °F 42.6 °F 99% 30.11 in 10.0 mi Calm Calm - N/A   Clear
4:15 AM 42.1 °F 42.1 °F 100% 30.10 in 2.0 mi Calm Calm - N/A   Clear
4:38 AM 41.0 °F 40.6 °F 99% 30.10 in 5.0 mi Calm Calm - N/A   Scattered Clouds
4:57 AM 41.2 °F 40.8 °F 99% 30.10 in 10.0 mi Calm Calm - N/A   Scattered Clouds
5:15 AM 41.4 °F 41.2 °F 99% 30.10 in 1.0 mi Calm Calm - N/A   Overcast
5:35 AM 41.0 °F 40.8 °F 99% 30.11 in 0.2 mi Calm Calm - N/A Fog Fog
5:55 AM 41.2 °F 41.2 °F 100% 30.11 in 0.2 mi Calm Calm - N/A Fog Fog
6:18 AM 41.7 °F 41.7 °F 100% 30.12 in 0.5 mi Calm Calm - N/A Fog Fog
6:37 AM 41.2 °F 41.2 °F 100% 30.12 in 0.5 mi Calm Calm - N/A Fog Fog
6:55 AM 41.0 °F 41.0 °F 100% 30.12 in 0.2 mi Calm Calm - N/A Fog Fog
7:15 AM 40.8 °F 40.8 °F 100% 30.12 in 0.2 mi Calm Calm - N/A Fog Fog
7:35 AM 40.1 °F 40.1 °F 100% 30.12 in 0.2 mi Calm Calm - N/A Fog Fog
7:58 AM 40.1 °F 40.1 °F 100% 30.12 in 0.2 mi Calm Calm - N/A Fog Fog
8:16 AM 40.5 °F 40.5 °F 100% 30.12 in 0.2 mi Calm Calm - N/A Fog Fog
8:35 AM 39.9 °F 39.9 °F 100% 30.12 in 0.2 mi Calm Calm - N/A Fog Fog
8:55 AM 41.9 °F 41.9 °F 100% 30.13 in 5.0 mi Calm Calm - N/A   Scattered Clouds
9:15 AM 43.9 °F 43.9 °F 100% 30.14 in 7.0 mi Calm Calm - N/A   Clear
9:38 AM 45.7 °F 45.7 °F 100% 30.16 in 10.0 mi Calm Calm - N/A   Clear
9:56 AM 47.7 °F 47.7 °F 100% 30.16 in 10.0 mi SE 3.5 mph - N/A   Clear
10:15 AM 48.9 °F 48.4 °F 98% 30.16 in 10.0 mi Calm Calm - N/A   Scattered Clouds
10:35 AM 50.9 °F 50.0 °F 97% 30.15 in 10.0 mi East 3.5 mph - N/A   Clear
10:55 AM 52.5 °F 51.1 °F 95% 30.14 in 10.0 mi ESE 3.5 mph - N/A   Clear
11:18 AM 54.9 °F 52.0 °F 90% 30.14 in 10.0 mi Calm Calm - N/A   Clear
11:36 AM 57.0 °F 53.2 °F 87% 30.14 in 10.0 mi East 3.5 mph - 0.01 in   Clear
11:55 AM 58.5 °F 53.8 °F 84% 30.14 in 10.0 mi East 3.5 mph - 0.01 in   Clear
12:16 PM 61.3 °F 52.3 °F 72% 30.13 in 10.0 mi ESE 5.8 mph - N/A   Clear
12:35 PM 62.8 °F 50.7 °F 65% 30.12 in 10.0 mi SE 6.9 mph - N/A   Clear
12:58 PM 63.9 °F 51.4 °F 64% 30.11 in 10.0 mi ESE 8.1 mph - N/A   Clear
1:16 PM 64.0 °F 50.2 °F 61% 30.10 in 10.0 mi SE 4.6 mph - N/A   Clear
1:35 PM 64.8 °F 49.6 °F 58% 30.09 in 10.0 mi Calm Calm - N/A   Clear
1:56 PM 65.8 °F 49.5 °F 55% 30.07 in 10.0 mi ESE 6.9 mph - N/A   Clear
2:15 PM 66.9 °F 48.6 °F 52% 30.07 in 10.0 mi South 5.8 mph - N/A   Clear
2:56 PM 67.5 °F 48.9 °F 51% 30.05 in 10.0 mi SW 3.5 mph - N/A   Clear
3:15 PM 67.8 °F 49.5 °F 52% 30.05 in 10.0 mi East 5.8 mph - N/A   Clear
3:35 PM 67.5 °F 48.9 °F 51% 30.05 in 10.0 mi South 4.6 mph - N/A   Clear
3:55 PM 68.0 °F 49.5 °F 51% 30.05 in 10.0 mi SSW 4.6 mph - N/A   Clear
4:00 PM 68.2 °F 48.6 °F 49% 30.05 in 10.0 mi Calm Calm - N/A   Clear
4:18 PM 68.7 °F 49.8 °F 51% 30.04 in 10.0 mi SW 4.6 mph - N/A   Clear
4:36 PM 68.4 °F 49.8 °F 51% 30.05 in 10.0 mi WSW 6.9 mph - N/A   Clear
4:55 PM 68.5 °F 49.1 °F 50% 30.05 in 10.0 mi WSW 5.8 mph - N/A   Clear
5:15 PM 68.0 °F 50.0 °F 52% 30.05 in 10.0 mi West 4.6 mph - N/A   Clear
5:39 PM 67.6 °F 49.5 °F 52% 30.06 in 10.0 mi WSW 4.6 mph - N/A   Clear
5:58 PM 67.1 °F 49.6 °F 53% 30.06 in 10.0 mi West 3.5 mph - N/A   Clear
6:16 PM 66.4 °F 49.6 °F 55% 30.06 in 10.0 mi West 3.5 mph - N/A   Clear
6:35 PM 64.9 °F 49.3 °F 57% 30.06 in 10.0 mi West 4.6 mph - N/A   Clear
6:55 PM 63.5 °F 49.6 °F 61% 30.07 in 10.0 mi Calm Calm - N/A   Clear
7:19 PM 62.6 °F 49.5 °F 62% 30.07 in 10.0 mi Calm Calm - N/A   Clear
7:37 PM 60.3 °F 50.0 °F 69% 30.07 in 10.0 mi Calm Calm - N/A   Clear
7:56 PM 59.0 °F 49.5 °F 71% 30.07 in 10.0 mi Calm Calm - N/A   Clear
8:15 PM 58.3 °F 49.6 °F 73% 30.06 in 10.0 mi ESE 3.5 mph - N/A   Clear
8:35 PM 55.9 °F 49.3 °F 78% 30.06 in 10.0 mi Calm Calm - N/A   Clear
8:59 PM 54.9 °F 49.6 °F 83% 30.06 in 10.0 mi Calm Calm - N/A   Clear
9:17 PM 55.2 °F 50.2 °F 83% 30.06 in 10.0 mi Calm Calm - N/A   Clear
9:35 PM 54.1 °F 50.0 °F 86% 30.07 in 10.0 mi Calm Calm - N/A   Clear
9:55 PM 53.8 °F 49.8 °F 86% 30.07 in 10.0 mi Calm Calm - N/A   Clear
10:15 PM 52.9 °F 49.5 °F 88% 30.06 in 10.0 mi Calm Calm - 0.01 in   Clear
10:39 PM 51.4 °F 49.1 °F 92% 30.07 in 10.0 mi Calm Calm - 0.01 in   Clear
10:57 PM 51.4 °F 48.9 °F 91% 30.07 in 10.0 mi Calm Calm - 0.01 in   Clear
11:15 PM 51.4 °F 49.8 °F 94% 30.06 in 10.0 mi Calm Calm - N/A   Clear
11:35 PM 52.9 °F 51.8 °F 96% 30.06 in 10.0 mi Calm Calm - N/A   Clear
11:55 PM 51.1 °F 49.6 °F 95% 30.06 in 10.0 mi SE 3.5 mph - N/A   Clear